Temperature
16 15 15 16 17 16 16 15 15 15 15 16 16 16 15 15 14 14 14 14 14 15 15 16 16 16 17 18 17 17 17 17 17 17 16 15 15 15
15 15 15 15 15 15 15 15 15 15 15 16 16 15 16 14 14 14 14 15 15 16 16 16 17 17 18 18 17 17 17 17 17 16 16 16 15 15
14 14 15 15 15 15 15 15 15 15 15 15 15 15 15 15 14 14 14 15 15 16 16 17 17 18 17 17 17 17 16 16 17 16 16 16 15 15
13 14 14 14 15 15 15 15 15 15 15 15 15 15 15 15 14 14 14 15 15 16 17 17 18 18 17 17 17 17 16 17 17 16 16 15 15 15
12 13 13 14 14 15 15 15 15 15 15 15 15 15 15 15 15 14 15 15 15 16 17 18 17 17 17 17 16 16 16 16 16 16 16 15 15 15
12 13 13 13 14 14 15 15 15 15 15 15 15 15 15 15 15 15 15 15 16 16 16 17 16 16 16 16 16 17 17 16 16 16 16 16 16 16
12 12 13 13 13 14 14 14 14 14 15 15 15 15 14 14 14 15 15 15 15 16 16 15 15 16 16 16 16 17 17 16 16 16 16 16 17 16
11 11 12 12 12 12 13 13 14 14 14 14 14 14 14 13 14 14 14 14 14 15 16 16 16 15 16 16 16 17 17 17 17 17 17 17 17 17
10 11 11 11 11 11 12 12 12 13 13 13 13 13 13 13 13 13 13 13 14 14 15 15 15 15 15 16 16 16 16 17 17 17 17 17 17 17
10 10 10 10 11 11 11 11 11 11 12 12 12 12 12 12 13 12 12 13 13 14 15 15 15 15 14 15 16 16 16 16 17 17 17 17 17 16
10 10 10 11 11 11 11 11 10 10 11 11 11 11 11 11 12 12 12 12 12 12 13 14 14 14 14 14 14 16 16 16 16 17 16 16 16 16
10 10 10 11 11 11 11 11 10 10 10 10 10 10 11 11 11 11 11 11 11 12 12 13 13 13 13 13 13 14 14 15 15 15 16 16 16 16
10 10 10 10 11 11 11 11 11 11 11 11 11 11 11 11 11 11 11 11 11 11 11 12 12 12 13 12 12 12 12 13 14 14 14 15 16 15
10 10 10 10 10 11 11 11 11 11 11 12 12 12 12 11 11 11 11 11 11 11 11 12 12 12 13 13 12 11 12 13 12 12 12 13 14 14
10 10 10 10 11 11 11 11 11 11 11 12 12 12 11 11 11 11 11 11 11 11 11 11 12 12 13 13 12 12 11 12 12 12 11 11 12 12
9 9 9 9 10 10 10 10 10 11 11 11 11 11 11 11 12 11 12 11 12 11 11 11 11 11 12 12 12 12 12 12 12 12 12 12 12 12
8 8 8 8 8 9 10 10 10 10 10 10 10 11 12 12 12 11 11 12 12 12 11 10 11 11 11 12 12 12 12 12 12 12 12 12 12 12
8 8 7 8 7 7 9 9 10 10 10 10 10 11 11 12 12 12 12 12 12 12 12 12 11 11 11 11 11 12 12 12 12 11 12 13 12 11
8 8 8 8 8 8 8 9 9 9 9 9 10 11 11 11 12 12 12 12 12 12 12 12 12 12 13 13 11 11 11 11 11 11 12 12 12 11
8 8 8 8 8 8 8 8 9 9 9 9 9 9 10 11 11 11 12 12 12 12 12 12 12 12 12 12 12 10 10 10 11 11 11 12 12 11
8 7 7 7 7 7 7 7 7 8 8 8 8 9 9 10 11 11 11 11 11 11 12 12 12 12 11 11 12 11 10 10 10 10 10 11 12 12
6 6 6 6 6 6 6 6 6 7 7 8 8 8 9 9 10 10 11 11 11 11 11 12 11 11 11 11 12 12 11 10 9 9 9 10 10 11
5 5 5 5 5 5 5 5 5 6 7 7 7 7 8 9 9 9 9 10 11 10 10 10 11 11 11 11 11 12 12 11 10 10 9 9 9 9
Wind_Speed
10 10 10 11 10 9 9 7 7 7 6 5 1 1 1 6 8 11 12 14 15 18 19 20 20 21 21 21 21 21 19 19 18 18 17 16 16 16
8 9 10 10 9 10 9 7 7 7 6 4 2 2 3 5 11 10 11 11 12 15 18 20 21 22 22 22 23 22 22 22 21 19 18 18 20 19
9 10 10 11 10 9 9 8 9 8 9 7 6 4 6 7 10 9 10 9 11 17 19 21 21 22 23 23 23 22 21 22 21 20 21 22 23 21
8 8 9 9 9 9 8 9 9 9 8 8 7 5 6 8 10 10 10 12 12 18 21 20 22 24 24 24 23 22 22 23 24 24 24 24 23 21
7 8 7 8 8 7 8 7 7 7 6 7 7 6 4 6 8 9 9 7 7 15 16 16 20 23 24 25 23 22 23 23 24 24 24 24 24 22
4 5 5 6 6 5 5 6 6 7 6 7 7 6 4 4 6 8 7 7 7 11 12 14 18 21 22 22 21 21 22 23 24 25 24 25 24 21
2 4 5 7 8 8 5 3 4 5 6 7 6 6 5 3 2 4 5 5 5 5 8 11 13 13 15 15 15 18 20 21 23 24 24 24 22 20
3 3 5 6 6 8 9 9 9 6 3 3 3 2 2 1 2 4 6 3 5 6 4 7 10 9 9 7 2 4 10 16 20 22 22 22 18 16
6 4 4 5 4 1 2 4 6 8 7 5 3 3 1 2 1 3 6 5 7 6 5 7 10 8 6 7 3 4 3 4 9 14 15 13 10 8
9 8 8 9 10 10 6 5 7 8 8 7 6 5 4 3 1 1 2 8 7 4 4 4 6 7 6 6 5 8 7 7 2 3 6 4 1 2
10 10 10 9 10 14 8 7 7 6 6 6 5 4 3 1 2 2 2 3 5 3 1 2 1 2 4 3 4 7 7 6 6 5 4 8 7 4
8 8 9 9 9 12 10 9 7 6 5 3 3 4 4 3 3 1 2 3 3 2 2 2 4 4 3 3 1 2 3 4 4 4 3 5 6 5
7 8 8 13 13 9 6 6 5 7 3 1 2 2 3 3 2 1 1 3 1 2 1 3 1 2 1 2 2 3 4 3 2 3 4 4 5 4
3 2 4 9 9 8 6 4 6 8 6 4 4 5 5 5 5 4 4 5 6 4 2 3 4 4 4 4 3 3 3 4 3 3 2 3 3 3
5 6 6 6 7 3 3 6 5 3 5 6 5 5 5 4 1 0 1 1 3 5 6 6 5 3 1 2 4 3 2 2 1 1 3 5 4 1
6 5 7 7 5 5 5 5 4 4 4 4 4 4 2 1 1 1 1 1 1 4 6 5 4 4 5 5 5 5 4 3 3 3 3 4 3 4
7 6 6 8 11 8 5 5 5 5 4 5 5 6 5 3 1 1 3 3 3 4 5 5 5 6 7 5 3 5 5 5 5 3 2 5 6 6
2 1 2 2 5 10 11 7 5 4 6 6 6 6 7 7 5 4 4 4 4 3 4 6 5 4 5 4 6 3 2 3 3 2 3 2 6 6
5 4 4 4 6 7 8 6 5 6 6 8 8 8 8 8 7 8 7 6 5 5 4 4 5 5 6 5 5 3 3 2 1 1 2 2 2 3
7 7 7 7 7 8 8 7 7 7 7 8 8 9 10 10 9 8 9 9 7 6 6 6 7 7 6 3 3 5 3 3 2 2 3 3 0 3
8 7 7 6 7 7 8 8 9 8 8 8 9 10 10 11 11 11 8 10 7 9 9 7 7 5 3 3 5 6 5 2 3 4 5 6 4 3
4 5 5 6 7 7 7 9 10 10 10 10 10 11 11 10 11 13 12 9 10 14 14 8 7 8 9 9 10 6 9 9 7 5 2 3 3 4
5 6 7 8 8 8 9 10 12 11 10 8 9 10 11 12 10 10 12 12 8 8 8 8 5 9 10 12 12 10 9 7 8 9 10 11 7 5
Wind_Direction
266 264 264 269 268 266 271 282 269 275 281 273 293 60 148 97 88 104 116 137 147 148 158 171 182 184 187 193 201 203 204 209 215 220 227 237 243 248
279 277 272 275 274 257 256 253 251 255 262 281 267 217 210 128 130 137 138 162 172 179 192 196 196 195 198 201 206 208 209 213 219 225 231 239 246 250
286 281 275 268 263 259 250 245 245 241 248 256 253 196 191 175 154 166 166 209 200 201 205 206 204 204 207 210 213 214 216 220 224 228 232 238 244 250
300 294 286 282 270 259 256 250 246 239 238 245 242 205 196 186 177 188 199 215 217 194 203 203 206 206 208 214 217 218 221 224 226 229 233 238 243 247
313 302 293 282 279 272 270 270 265 253 241 243 237 197 186 196 203 203 209 227 219 175 190 194 207 209 210 215 218 221 225 229 232 236 240 244 246 247
320 330 340 332 324 297 277 276 265 248 231 230 235 210 180 192 208 207 193 199 214 172 184 187 197 206 213 218 223 228 234 238 241 243 244 248 251 251
42 12 15 27 29 20 10 337 304 257 231 243 241 217 189 172 212 224 215 186 216 212 182 171 182 190 197 212 224 230 236 241 245 247 248 250 252 253
61 76 50 28 26 38 46 47 38 16 335 303 270 230 196 83 2 286 257 219 213 214 217 198 164 171 167 145 129 206 224 237 240 244 246 247 251 255
35 36 76 44 2 38 123 125 75 51 26 21 39 58 81 70 16 322 302 242 230 220 212 209 159 161 142 107 23 343 304 213 236 241 238 241 253 265
61 57 54 54 16 349 15 34 43 47 30 39 59 60 46 42 67 138 355 338 317 270 287 236 159 170 170 129 78 40 22 4 14 200 199 173 151 209
64 47 39 38 4 342 16 47 49 60 94 90 102 126 123 67 5 37 10 351 305 260 271 236 151 230 193 198 96 69 61 50 32 37 99 109 114 158
80 68 44 11 3 2 18 27 41 28 20 74 139 173 166 179 228 238 273 274 288 330 5 300 190 190 203 185 172 164 126 92 82 87 97 119 141 205
55 37 21 357 352 360 5 17 350 319 304 84 75 88 86 98 118 124 251 279 249 208 256 313 331 132 115 159 123 40 21 38 84 126 133 153 168 241
96 64 11 351 334 346 1 349 298 292 321 1 54 57 42 29 27 27 31 23 30 23 24 277 242 193 181 174 142 120 74 35 2 9 90 121 155 208
10 352 323 297 278 278 320 291 280 323 338 340 7 44 51 47 359 359 87 80 86 54 30 7 2 49 20 100 115 133 119 87 78 78 57 33 20 19
51 26 332 305 275 269 291 290 333 357 339 339 328 325 324 333 73 240 212 184 113 85 67 51 47 56 77 83 104 120 137 128 93 61 88 73 52 49
335 349 7 354 335 327 319 325 328 329 327 333 318 297 272 255 221 170 284 268 220 150 129 109 65 56 41 18 84 94 95 86 60 46 98 89 62 43
293 331 324 316 297 298 308 315 317 315 318 317 300 289 285 271 252 205 208 245 248 212 179 154 167 162 143 84 30 42 78 68 62 20 336 97 106 91
286 298 282 268 273 277 286 305 318 320 316 299 294 291 281 274 264 252 235 223 239 247 240 225 231 229 228 174 116 37 2 32 359 20 341 324 29 64
278 287 289 289 287 288 295 303 309 309 307 308 305 298 292 284 274 264 257 247 242 236 229 225 237 249 268 332 131 123 44 340 319 325 313 287 222 206
291 296 298 302 301 299 301 300 297 298 305 302 293 283 279 277 275 267 258 255 254 278 254 222 197 195 252 286 263 182 149 118 349 326 317 301 294 254
307 305 310 312 306 308 311 302 294 292 289 288 294 295 290 283 281 283 279 260 238 238 250 240 159 190 210 233 249 213 178 167 180 202 243 330 348 338
325 315 310 308 310 313 311 307 302 292 289 293 292 288 285 285 286 293 297 290 274 231 252 289 249 220 222 233 248 245 223 198 209 197 189 184 189 238
Height
1520 1519 1520 1521 1521 1520 1519 1518 1519 1519 1518 1517 1516 1514 1513 1510 1507 1505 1504 1508 1512 1516 1520 1523 1525 1526 1528 1530 1532 1534 1534 1535 1537 1539 1540 1541 1542 1543
1516 1515 1516 1515 1516 1516 1514 1513 1514 1515 1515 1514 1513 1512 1512 1513 1512 1512 1511 1512 1514 1516 1519 1521 1523 1525 1526 1527 1529 1530 1531 1532 1534 1535 1536 1537 1538 1539
1512 1513 1512 1511 1512 1511 1510 1508 1509 1509 1510 1510 1511 1510 1511 1513 1513 1514 1514 1514 1515 1516 1517 1519 1520 1522 1524 1525 1527 1528 1528 1528 1529 1531 1532 1533 1534 1535
1508 1508 1507 1508 1508 1508 1507 1506 1505 1504 1505 1505 1506 1507 1509 1511 1513 1513 1514 1515 1516 1515 1515 1516 1517 1519 1520 1522 1523 1524 1524 1525 1526 1528 1529 1530 1531 1532
1504 1503 1502 1503 1502 1503 1504 1503 1503 1503 1502 1501 1501 1502 1504 1508 1510 1512 1512 1513 1513 1512 1512 1512 1513 1515 1517 1519 1520 1521 1522 1524 1525 1526 1527 1527 1528 1529
1502 1501 1499 1498 1497 1498 1499 1499 1499 1500 1499 1498 1498 1499 1501 1504 1506 1507 1508 1509 1511 1510 1509 1510 1512 1513 1514 1516 1518 1519 1521 1522 1523 1524 1525 1525 1525 1525
1501 1500 1498 1496 1495 1496 1496 1497 1497 1496 1496 1495 1494 1495 1498 1502 1504 1505 1506 1507 1508 1509 1509 1509 1510 1511 1512 1514 1516 1517 1518 1520 1521 1522 1522 1522 1522 1523
1500 1499 1498 1497 1497 1496 1496 1496 1495 1495 1495 1493 1493 1494 1497 1499 1502 1505 1505 1504 1506 1507 1506 1506 1508 1510 1511 1512 1513 1514 1516 1517 1518 1518 1518 1519 1520 1520
1500 1501 1501 1499 1498 1498 1496 1495 1495 1494 1494 1494 1494 1494 1495 1496 1498 1499 1501 1502 1503 1504 1503 1503 1504 1506 1507 1506 1509 1511 1512 1513 1513 1514 1514 1515 1516 1517
1503 1503 1504 1502 1500 1500 1499 1497 1497 1495 1495 1494 1494 1494 1494 1494 1494 1494 1495 1495 1496 1498 1499 1499 1500 1503 1504 1504 1506 1507 1509 1510 1510 1510 1510 1511 1512 1513
1507 1505 1505 1504 1503 1502 1501 1499 1499 1499 1498 1497 1496 1495 1494 1493 1493 1494 1494 1496 1496 1496 1496 1498 1497 1499 1502 1503 1503 1503 1505 1506 1506 1507 1506 1507 1508 1509
1512 1510 1508 1507 1505 1504 1501 1502 1503 1503 1502 1501 1500 1498 1495 1493 1492 1492 1492 1493 1495 1494 1494 1496 1495 1496 1499 1501 1500 1501 1502 1502 1503 1503 1502 1503 1504 1504
1513 1513 1512 1509 1507 1507 1505 1505 1505 1505 1504 1503 1503 1501 1498 1497 1496 1494 1493 1493 1494 1493 1492 1493 1493 1494 1496 1498 1499 1499 1499 1499 1499 1499 1498 1498 1499 1500
1514 1514 1514 1513 1512 1511 1509 1508 1507 1506 1506 1505 1504 1502 1501 1500 1498 1496 1495 1494 1493 1492 1492 1492 1492 1493 1494 1496 1498 1499 1498 1497 1497 1497 1497 1497 1497 1498
1513 1513 1513 1514 1513 1513 1512 1510 1509 1507 1506 1506 1505 1504 1504 1502 1501 1500 1498 1497 1497 1495 1495 1494 1494 1495 1496 1497 1497 1498 1498 1497 1497 1499 1498 1498 1499 1499
1513 1512 1512 1512 1512 1512 1511 1511 1510 1508 1506 1505 1505 1505 1505 1505 1504 1503 1503 1501 1500 1498 1496 1495 1496 1498 1498 1498 1499 1499 1499 1500 1500 1501 1501 1500 1500 1500
1511 1511 1511 1511 1512 1513 1512 1510 1508 1508 1507 1505 1504 1504 1504 1504 1503 1503 1502 1502 1501 1501 1501 1499 1498 1499 1499 1499 1500 1500 1499 1500 1501 1501 1502 1501 1500 1500
1509 1508 1508 1508 1509 1510 1510 1508 1506 1505 1505 1504 1503 1502 1501 1501 1502 1502 1501 1502 1501 1501 1501 1501 1500 1501 1501 1500 1500 1500 1500 1500 1501 1501 1501 1501 1501 1500
1508 1508 1507 1507 1506 1506 1506 1503 1502 1501 1501 1501 1501 1500 1499 1498 1498 1499 1499 1499 1500 1500 1500 1500 1499 1499 1498 1498 1498 1500 1500 1501 1501 1501 1501 1501 1501 1499
1505 1505 1504 1504 1503 1503 1502 1500 1499 1499 1498 1498 1497 1496 1496 1495 1494 1494 1495 1495 1496 1496 1497 1497 1497 1497 1497 1497 1497 1498 1499 1500 1501 1501 1501 1501 1499 1498
1501 1501 1501 1500 1499 1498 1498 1497 1497 1496 1495 1494 1493 1493 1492 1491 1490 1490 1490 1490 1491 1492 1492 1493 1493 1494 1495 1496 1497 1496 1496 1497 1498 1499 1499 1499 1498 1497
1499 1499 1498 1497 1496 1495 1494 1493 1492 1491 1490 1490 1489 1488 1488 1487 1487 1486 1486 1486 1486 1487 1487 1488 1488 1491 1492 1493 1493 1493 1494 1494 1495 1496 1496 1496 1495 1495
1497 1496 1495 1494 1493 1492 1491 1490 1488 1487 1486 1486 1486 1485 1485 1484 1483 1482 1481 1480 1481 1480 1481 1482 1484 1486 1486 1488 1489 1489 1490 1492 1493 1493 1493 1492 1493 1492